Location: Le Rocchette
(44.3500°N, 7.8333°E)
Time: 10:41:38
(UTC+00:00)

SJ-7 - Pass Details

Date: 17 November 2019
Orbit: 555 x 603 km, 97.7° (Epoch: 11 December)

Event Time Altitude Azimuth Distance (km) Brightness Sun altitude
Rises 05:36:03 0° 10° (N) 2,844 7.9 -9.2°
Reaches altitude 10° 05:38:15 10° 8° (N) 1,931 7.0 -8.8°
Maximum altitude 05:42:24 69° 286° (WNW) 632 4.4 -8.1°
Drops below altitude 10° 05:46:28 10° 203° (SSW) 1,887 7.0 -7.5°
Sets 05:48:36 0° 201° (SSW) 2,772 7.9 -7.1°
